Home   Weather   Malmö   Past weeks

Flag for Sweden Past Weather in Malmö, Sweden — Yesterday and Last 2 Weeks

Now
63 °F

Sunny.


Feels Like: 63 °F
Forecast: 52 / 72 °F
Wind: 16 mph from Northwest

Location: Malmo / Sturup

Current Time: May 25, 2017 at 8:21:20 pm

Latest Report: May 25, 2017 at 7:50 pm


Visibility: 10 mi

Pressure: 30.04 "Hg

Humidity: 52%

Dew Point: 45 °F

Location of MalmöLocation

Past Weather in Malmö — Graph

°F

Malmö Temperature Yesterday

Maximum temperature yesterday: 61 °F (at 5:50 pm)
Minimum temperature yesterday: 52 °F (at 10:50 am)
Average temperature yesterday: 55 °F

High & Low Weather Summary for the Past Weeks

 TemperatureHumidityPressure
High75 °F (May 19, 1:50 pm)100% (May 11, 6:50 am)30.42 "Hg (May 11, 6:50 am)
Low37 °F (May 10, 9:50 pm)46% (May 21, 1:20 pm)29.71 "Hg (May 11, 2:50 am)
Average55 °F76%30.03 "Hg
* Reported May 10 7:20 pm — May 25 7:20 pm, Malmö. Weather by CustomWeather, © 2017

Note: Actual official high and low records may vary slightly from our data, if they occured in-between our weather recording intervals... More about our weather records

Advertising

Malmö Weather History for the Previous 24 Hours

Scroll right to see more
 ConditionsComfort  
Time TempWeatherWind HumidityBarometerVisibility
7:20 pm
Thu, May 25
63 °FSunny.17 mph56%30.04 "Hg10 mi
6:50 pm63 °FSunny.15 mph59%30.07 "Hg10 mi
6:20 pm63 °FSunny.17 mph59%30.07 "Hg10 mi
5:50 pm63 °FSunny.18 mph59%30.07 "Hg10 mi
5:20 pm63 °FSunny.20 mph64%30.07 "Hg10 mi
4:50 pm63 °FSunny.18 mph64%30.07 "Hg10 mi
4:20 pm61 °FSunny.22 mph63%30.07 "Hg10 mi
3:50 pm63 °FSunny.20 mph64%30.07 "Hg10 mi
3:20 pm63 °FSunny.22 mph64%30.07 "Hg10 mi
2:50 pm63 °FSunny.18 mph64%30.07 "Hg10 mi
11:20 am59 °FPassing clouds.14 mph77%30.04 "HgN/A
10:50 am57 °FScattered clouds.14 mph77%30.04 "HgN/A
10:20 am55 °FPartly sunny.14 mph82%30.04 "HgN/A
9:50 am55 °FPartly sunny.15 mph82%30.04 "HgN/A
9:20 am54 °FPartly sunny.13 mph82%30.04 "HgN/A
8:50 am54 °FPartly sunny.12 mph82%30.04 "HgN/A
8:20 am52 °FPartly sunny.10 mph88%30.04 "HgN/A
7:50 am52 °FPartly sunny.12 mph88%30.04 "HgN/A
7:20 am52 °FPartly sunny.10 mph88%30.01 "HgN/A
6:50 am52 °FPartly sunny.8 mph88%30.01 "HgN/A
6:20 am50 °FPartly sunny.6 mph88%30.01 "HgN/A
5:50 am50 °FPartly sunny.8 mph88%30.01 "HgN/A
5:20 am50 °FPartly sunny.6 mph88%30.01 "HgN/A
4:50 am48 °FPartly sunny.8 mph94%30.01 "HgN/A
4:20 am48 °FPassing clouds.7 mph87%30.01 "HgN/A
3:50 am46 °FPassing clouds.7 mph93%30.04 "HgN/A
3:20 am46 °FPassing clouds.6 mph93%30.04 "HgN/A
2:50 am48 °FClear.6 mph87%30.04 "Hg10 mi
2:20 am48 °FClear.6 mph87%30.04 "Hg10 mi
1:50 am50 °FClear.7 mph82%30.04 "Hg10 mi
1:20 am50 °FClear.7 mph76%30.04 "Hg10 mi
12:50 am50 °FClear.8 mph82%30.04 "Hg10 mi
12:20 am52 °FClear.8 mph77%30.04 "Hg10 mi
11:50 pm
Wed, May 24
52 °FClear.7 mph82%30.04 "Hg10 mi
11:20 pm52 °FClear.6 mph88%30.04 "Hg10 mi
10:50 pm52 °FPassing clouds.6 mph88%30.04 "HgN/A
10:20 pm52 °FClear.6 mph88%30.04 "Hg10 mi
9:50 pm54 °FClear.6 mph88%30.04 "Hg10 mi
9:20 pm54 °FSunny.6 mph88%30.04 "Hg10 mi
8:50 pm55 °FSunny.6 mph82%30.04 "Hg10 mi
8:20 pm57 °FSunny.7 mph77%30.04 "Hg10 mi
Weather by CustomWeather, © 2017

See weather overviewHow to use our weather pages